EW9776 Weather Reports


Display with metric or nautical units.
time (UTC)temp
F
wind
direction
speed
MPH
gust
MPH
rain 1hr
in
rain 24hr
in
rain mn
in
humidity
%
barometer
mb
20260508080110 52 104 1.0 5.0 0.00 0.00 0.00 56 1017.7
20260508074535 57 203 1.0 4.0 0.00 0.00 0.00 47 1017.8
20260508071608 58 232 3.0 8.0 0.00 0.00 0.00 45 1017.8
20260508070035 58 233 4.0 8.0 0.00 0.00 0.00 44 1017.8
20260508064535 59 223 6.0 13.0 0.00 0.00 0.00 43 1017.8
20260508061610 60 220 9.0 16.0 0.00 0.00 0.00 42 1017.7
20260508060030 60 217 10.0 20.0 0.00 0.00 0.00 40 1017.8
20260508054536 60 218 10.0 18.0 0.00 0.00 0.00 38 1017.8
20260508053035 60 222 8.0 14.0 0.00 0.00 0.00 36 1018.0
20260508050044 60 225 9.0 16.0 0.00 0.00 0.00 35 1017.9
20260508044534 60 217 9.0 16.0 0.00 0.00 0.00 34 1017.8
20260508043033 61 220 8.0 16.0 0.00 0.00 0.00 33 1017.7
20260508041533 61 221 9.0 19.0 0.00 0.00 0.00 32 1017.6
20260508040031 61 220 9.0 19.0 0.00 0.00 0.00 31 1017.5
20260508034535 62 214 9.0 18.0 0.00 0.00 0.00 30 1017.4
20260508033036 62 215 9.0 17.0 0.00 0.00 0.00 29 1017.2
20260508031533 63 215 9.0 21.0 0.00 0.00 0.00 27 1017.2
20260508030037 65 212 7.0 13.0 0.00 0.00 0.00 29 1017.1
20260508023034 67 102 2.0 7.0 0.00 0.00 0.00 27 1017.0
20260508020034 69 326 2.0 4.0 0.00 0.00 0.00 25 1016.9
20260508014534 70 255 3.0 8.0 0.00 0.00 0.00 24 1016.9
20260508013034 71 306 2.0 8.0 0.00 0.00 0.00 22 1016.9
20260508011610 71 302 3.0 8.0 0.00 0.00 0.00 22 1017.0
20260508010036 72 356 1.0 6.0 0.00 0.00 0.00 23 1017.0
20260508004528 71 318 3.0 11.0 0.00 0.00 0.00 24 1016.9
20260508003034 71 340 5.0 12.0 0.00 0.00 0.00 23 1016.9
20260508001644 72 306 6.0 13.0 0.00 0.00 0.00 23 1016.8
20260507234542 72 340 5.0 11.0 0.00 0.00 0.00 29 1016.8
20260507234536 71 1 5.0 11.0 0.00 0.00 0.00 30 1016.9
20260507231533 69 333 5.0 12.0 0.00 0.00 0.00 30 1017.2
20260507230030 70 343 5.0 10.0 0.00 0.00 0.00 32 1017.2
20260507224530 70 340 5.0 9.0 0.00 0.00 0.00 32 1017.3
20260507223032 70 337 5.0 11.0 0.00 0.00 0.00 32 1017.4
20260507221620 71 337 5.0 11.0 0.00 0.00 0.00 33 1017.5
20260507220143 71 12 5.0 11.0 0.00 0.00 0.00 39 1017.7
20260507210032 69 41 4.0 10.0 0.00 0.00 0.00 41 1018.1
20260507204536 69 38 5.0 10.0 0.00 0.00 0.00 41 1018.2
20260507203037 69 40 3.0 10.0 0.00 0.00 0.00 40 1018.4
20260507200037 68 13 5.0 11.0 0.00 0.00 0.00 42 1018.6
20260507194535 67 318 3.0 7.0 0.00 0.00 0.00 42 1018.6
20260507193037 67 348 3.0 10.0 0.00 0.00 0.00 43 1018.8
20260507191612 66 333 4.0 9.0 0.00 0.00 0.00 46 1018.9
20260507184537 63 24 6.0 14.0 0.00 0.00 0.00 52 1019.3
20260507181537 63 23 7.0 15.0 0.00 0.00 0.00 52 1019.4
20260507180110 63 37 4.0 9.0 0.00 0.00 0.00 54 1019.6
20260507174537 62 45 5.0 10.0 0.00 0.00 0.00 55 1019.8
20260507173035 61 43 5.0 10.0 0.00 0.00 0.00 57 1020.0
20260507171538 60 45 5.0 11.0 0.00 0.00 0.00 58 1020.1
20260507170031 59 24 4.0 8.0 0.00 0.00 0.00 60 1020.0
20260507163037 59 44 4.0 11.0 0.00 0.00 0.00 61 1020.2
20260507160111 58 22 4.0 8.0 0.00 0.00 0.00 63 1020.3
20260507154609 58 27 3.0 8.0 0.00 0.00 0.00 65 1020.4
20260507153036 57 50 3.0 6.0 0.00 0.00 0.00 68 1020.4
20260507151537 56 89 2.0 6.0 0.00 0.00 0.00 69 1020.5
20260507150051 55 102 1.0 7.0 0.00 0.00 0.00 73 1020.5
20260507144537 51 52 1.0 5.0 0.00 0.00 0.00 79 1020.5
20260507141534 49 58 4.0 9.0 0.00 0.00 0.00 83 1020.4
20260507140111 49 48 4.0 11.0 0.00 0.00 0.00 83 1020.1
20260507134538 49 51 3.0 10.0 0.00 0.00 0.00 80 1020.0
20260507133033 52 353 3.0 8.0 0.00 0.00 0.00 73 1019.9
20260507131536 53 241 6.0 15.0 0.00 0.00 0.00 72 1019.8
20260507130036 53 241 5.0 12.0 0.00 0.00 0.00 73 1019.7
20260507124608 53 263 3.0 10.0 0.00 0.00 0.00 72 1019.8
20260507123035 54 256 6.0 18.0 0.00 0.00 0.00 71 1019.8
20260507121536 54 248 8.0 20.0 0.00 0.00 0.00 71 1019.7
20260507114609 54 248 9.0 23.0 0.00 0.00 0.00 72 1019.5
20260507113143 54 251 9.0 21.0 0.00 0.00 0.00 72 1019.4
20260507111536 54 241 10.0 24.0 0.00 0.00 0.00 72 1019.4
20260507110032 54 242 9.0 23.0 0.00 0.00 0.00 72 1019.3
20260507104532 55 236 11.0 23.0 0.00 0.00 0.00 72 1019.4
20260507101536 55 230 9.0 18.0 0.00 0.00 0.00 70 1019.6
20260507100042 56 230 9.0 21.0 0.00 0.00 0.00 69 1019.6
20260507094535 56 226 10.0 17.0 0.00 0.00 0.00 69 1019.6
20260507093033 56 226 10.0 21.0 0.00 0.00 0.00 68 1019.6
20260507091535 57 235 9.0 21.0 0.00 0.00 0.00 68 1019.7
20260507090036 57 230 9.0 20.0 0.00 0.00 0.00 68 1019.7
20260507084535 57 226 9.0 20.0 0.00 0.00 0.00 69 1019.8
20260507083037 57 224 10.0 24.0 0.00 0.00 0.00 69 1019.8
20260507081532 57 224 11.0 22.0 0.00 0.00 0.00 69 1020.0